Weather in Mezhdurechensk

Russia / Samara Oblast     53°16′12″N   49°06′51″E
temp.,
°C
wind,
m/s
gust,
m/s
humid.,
%
clouds,
%
prec.,
mm/h
press.,
hPa
HPBL,
m
3 march, wed
wed301:00−4wnw2393100 0.0 100322
04:00−5wnw239298 0.0 100343
07:00−6wnw349594 0.1 100363
10:00−3nw6109193 0.1 1004451
13:00−2nw688497 0.1 1005847
16:00−3nw698499 0.1 1006923
19:00−5nw51288100 0.0 1007485
22:00−9wnw469160 0.0 1009105
4 march, thu
thu401:00−11w34930 0.0 100941
04:00−12wsw34920 0.0 100967
07:00−11sw369650 0.0 1007110
10:00−4wsw6139075 0.0 1006663
13:00−1sw91387100 0.0 1003881
16:000wsw91598100 0.3 10011076
19:00+1wsw71489100 0.0 1001871
22:00−1wsw51290100 0.0 1003501
5 march, fri
fri501:00−1wsw41192100 0.0 1002417
04:00−1sw51193100 0.2 1002461
07:00−1sw61197100 0.6 1001542
10:000sw511100100 1.4 1000505
13:00+1w49100100 1.9 1000342
16:00−1nnw6988100 2.1 1003726
19:00−7n499170 0.0 1007160
22:00−11n339334 0.0 101235
6 march, sat
sat601:00−14nnw11952 0.0 101321
04:00−13ssw119451 0.0 101421
07:00−13sse129597 0.0 101421
10:00−10s349599 0.0 1013174
13:00−6ssw2392100 0.0 1011294
16:00−4wnw2586100 0.1 1010696
19:00−9nw478972 0.0 1010130
22:00−12nw5118945 0.0 1012246
7 march, sun
sun701:00−15nw47900 0.0 1012104
04:00−17nw44880 0.0 101383
07:00−19wnw23930 0.0 101420
10:00−15wsw35900 0.0 1015234
13:00−11sw468916 0.0 1014372
16:00−10ssw698823 0.0 1011610
19:00−9s61394100 0.1 1008633
22:00−8ssw81594100 0.4 1005830